Regional Weather Roundup
Issued by NWS Pendleton, OR

Home | Current Version | Previous Version | Text Only | Print | Product List | Glossary On
Versions: 1 2 3 4 5 6 7 8 9 10 11 12 13 14 15 16 17 18 19 20 21 22 23 24 25 26 27 28 29 30 31 32 33 34 35 36 37 38 39 40 41 42 43 44 45 46 47 48 49 50
000
ASUS46 KPDT 041325
RWRPDT
PENDLETON REGIONAL WEATHER ROUNDUP
NATIONAL WEATHER SERVICE PENDLETON OREGON
500 AM PST WED MAR 4 2015

NOTE: FAIR INDICATES FEW OR NO CLOUDS BELOW 12,000 FEET WITH NO
SIGNIFICANT WEATHER AND/OR OBSTRUCTIONS TO VISIBILITY.

# INDICATES UNOFFICIAL STATION AND DATA

WAZ520-041410-
EAST SLOPES OF WASHINGTON CASCADES

CITY            SKY/WX      TMP DP  RH  WIND    PRES   REMARKS
#BUMPING DAM    N/A         20  N/A N/A E1      N/A
#CLE ELUM HS    N/A         21  18  88  CALM    30.17R
#CLE ELUM LAKE  N/A         25  19  78  CALM    30.27R
#CLIFFDEL 2NW   N/A         19  15  84  CALM    N/A
#GLENWOOD       N/A         18  16  92  CALM    30.31R
#MANASTASH CYN  N/A         23  12  62  CALM    30.17R
#NELSON         N/A         21  17  84  CALM    30.32R
#NELSON 3SW     N/A         23  17  77  CALM    30.51S
#NILE           N/A         21  18  88  CALM    29.57R
#RONALD 2NW     N/A         28  17  63  N1      30.04S
#SNOWDEN        N/A         23   9  54  CALM    N/A
#TEANAWAY 4NE   N/A         21  18  88  CALM    N/A
#TROUT LAKE 1NE N/A         21  19  92  CALM    30.30R
$$

WAZ521-041410-
SIMCOE HIGHLANDS

CITY            SKY/WX      TMP DP  RH  WIND    PRES   REMARKS
#BICKLETON HS   N/A         24  11  57  CALM    N/A
#CENTERVILLE 1SWN/A         22  19  88  CALM    30.28R
#GOLDENDALE     N/A         24  19  81  E2      N/A
#GOLDENDALE 1NE N/A         24  11  57  N3      N/A
#GOLDENDALE 5WNWN/A         N/A N/A N/A S5      30.25R
#GOODNOE HILLS  N/A         30  16  55  NW3     N/A
#LYLE 6NE       N/A         27  22  81  NE2     30.26R
$$

WAZ026-041410-
KITTITAS VALLEY

CITY            SKY/WX      TMP DP  RH  WIND    PRES   REMARKS
ELLENSBURG AP   CLEAR       24  18  77  CALM    30.24R
#ELLENSBURG CWU N/A         22  18  84  SE1     30.26R
#ELLENSBURG 3NE N/A         22  17  81  CALM    30.23S
#ELLENSBURG 1E  N/A         19  15  84  CALM    N/A
#KITTITAS 4N    N/A         23  15  71  CALM    28.53S
#KITTITAS 3S    N/A         15  13  92  CALM    30.32R
#THORP 6N       N/A         26  20  78  N1      30.31R
$$

WAZ027-041410-
YAKIMA VALLEY

CITY            SKY/WX      TMP DP  RH  WIND    PRES   REMARKS
SUNNYSIDE AP    CLEAR       20  16  84  CALM    30.28R
YAKIMA AIRPORT  CLEAR       24  17  74  NW7     30.27S
YAKIMA-VAGABOND CLEAR       26  17  68  W1      30.25S
#MABTON         N/A         22  18  84  S1      30.28R
#NACHES 2SW     N/A         30  20  66  W7      30.22S
#OUTLOOK DOT    N/A         N/A N/A N/A CALM    N/A
#SELAH 8E       N/A         17  12  80  E3      N/A
#TERRACE HTS    N/A         22  17  81  CALM    30.27S
#TOPPENISH      N/A         26  21  81  CALM    30.22R
#WEST VALLEY    N/A         23  18  81  CALM    30.29S
#W YAKIMA       N/A         27  20  74  W1      30.31R
#WHITE SWAN 5E  N/A         22  19  88  CALM    30.31R
#WILEY CITY 3W  N/A         25  17  71  CALM    30.27S
$$

WAZ028-041410-
LOWER COLUMBIA BASIN...WASHINGTON

CITY            SKY/WX      TMP DP  RH  WIND    PRES   REMARKS
HANFORD         CLEAR       24  15  68  NW5     30.26S
PASCO           CLEAR       18  15  88  N3      30.30R
PROSSER AWOS    N/A         21  18  88  W3      30.32R
RICHLAND AWOS   CLEAR       23  21  92  CALM    30.30R
#BASIN CITY 5SW N/A         20  14  77  NE3     30.28R
#CONNELL 5N     N/A         20  14  77  NE1     30.31R
#CONNELL 5NW    N/A         21  15  77  E2      30.27R
#ELTOPIA        N/A         25  16  68  E2      30.27
#ELTOPIA 6NW    N/A         28  16  60  E1      29.23R
#KAHLOTUS       N/A         21  14  74  S9      30.32R
#KENNEWICK 3S   N/A         31  19  61  CALM    30.31R
#PATERSON       N/A         28  20  71  NE2     30.29S
#PROSSER        N/A         29  16  58  CALM    30.30R
#SAGEMOOR 2W    N/A         27  16  63  CALM    30.16R
#TOUCHET 2S     N/A         17  14  88  CALM    30.30S
#WEST PASCO     N/A         23  13  65  N1      30.31R
$$

WAZ029-041410-
FOOTHILLS OF THE BLUES...WASHINGTON

CITY            SKY/WX      TMP DP  RH  WIND    PRES   REMARKS
WALLA WALLA AP  CLEAR       31  10  41  SE5     30.25R
#DAYTON SCHOOL  N/A         28   4  35  NE3     30.25S
#LOWDEN 2SE     N/A         21  17  84  CALM    30.26R
#PLEASANT VIEW 1N/A         28  15  58  CALM    30.35S
#PRESCOTT       N/A         24  17  74  CALM    30.31R
#SUDBURY        N/A         22  N/A N/A CALM    N/A
#WHITMAN COLLEGEN/A         31  16  53  CALM    30.35S
#WAITSBURG 5S   N/A         30  12  46  NE7     30.40S
#WAITSBURG 8N   N/A         20  -2  37  N1      30.12R
#WALLA WALLA 5E N/A         29  13  51  NE5     N/A
#WHITMAN MISSIONN/A         23  19  84  CALM    30.32S
$$

WAZ030-041410-
BLUE MOUNTAINS...WASHINGTON

CITY            SKY/WX      TMP DP  RH  WIND    PRES   REMARKS
#DIXIE 5SE      N/A         31  -7  18  CALM    30.11S
#SKI BLUEWOOD   N/A         14   5  67  CALM    30.12S
$$

ORZ009-041-WAZ024-041410-
COLUMBIA RIVER GORGE

CITY            SKY/WX      TMP DP  RH  WIND    PRES   REMARKS
HOOD RIVER AP   CLEAR       27  23  85  CALM    30.29R
THE DALLES AP   CLEAR       26  21  81  CALM    30.31R
#ARLINGTON AIRPON/A         30  22  72  CALM    30.02S
#ARLINGTON HS   N/A         24  19  81  SE7     30.26R
#CELILO DOT     N/A         29  21  72  SE1     N/A
#MOSIER 1S      N/A         26  16  65  CALM    30.27R
#MURDOCK        N/A         30  26  85  CALM    30.34R
#RUFUS DOT      N/A         N/A N/A N/A CALM    N/A

$$

ORZ510-041410-
NORTH CENTRAL OREGON

CITY            SKY/WX      TMP DP  RH  WIND    PRES   REMARKS
#CHENOWITH 1W   N/A         31  19  61  N5      N/A
#COW CYN RST AREN/A         29  16  58  W2      N/A
#DUFUR 9E       N/A         30  19  63  E2      30.33R
#GRASS VALLEY 1SN/A         26  18  71  CALM    30.32R
#KENT DOT       N/A         28  14  55  E6      N/A
#MAUPIN SCHOOL  N/A         25  18  74  CALM    30.28R
#MORO SCHOOL    N/A         21  19  92  SW1     30.23R
#SHANIKO 5WSW   N/A         27   8  44  SE8     N/A
#SHANIKO 4NW    N/A         28  15  58  S7      30.15S
#TYGH VALLEY 2NEN/A         24  19  81  CALM    30.30R
#WAPANITIA AIRPON/A         23  18  81  CALM    30.31R
#WASCO DOT      N/A         21  18  88  CALM    N/A
#WASCO AIRPORT  N/A         27  20  74  E1      N/A
#WASCO 5NE      N/A         19  15  84  CALM    30.31R
$$

ORZ511-041410-
CENTRAL OREGON

CITY            SKY/WX      TMP DP  RH  WIND    PRES   REMARKS
BEND AIRPORT    CLEAR       19  14  80  MISG    N/A
MADRAS AIRPORT  CLEAR       21  18  88  S5      30.22S
PRINEVILLE AP   CLEAR       16  14  92  CALM    30.19S
REDMOND AIRPORT CLEAR       18  14  84  CALM    30.19R
#BEND 6E        N/A         20  10  64  CALM    30.29R
#BEND 1SW       N/A         22  17  81  SW1     N/A
#BEND-AWBREY    N/A         28  18  66  S5      30.27F
#BEND-KIM LN    N/A         25  18  74  SW5     30.14S
#CROOKED RVR RANN/A         22  16  77  W2      30.29R
#CULVER         N/A         21  16  81  CALM    30.16S
#LAKE BILLY CHINN/A         26   8  46  CALM    30.31S
#POWELL BUTTE 3EN/A         17  14  88  CALM    N/A
#POWELL BUTTE   N/A         22  13  68  S2      29.79S
#PRINEVILLE 3N  N/A         19  14  80  CALM    30.27R
#WARM SPRINGS   N/A         21  18  88  CALM    30.21S

$$


ORZ509-041410-
EAST SLOPES OF OREGON CASCADES

CITY            SKY/WX      TMP DP  RH  WIND    PRES   REMARKS
#BLUE BOX PASS  N/A         29  -18 11  CALM    N/A
#CAMP SHERMAN   N/A         15  11  84  CALM    30.35R
#LA PINE DOT    N/A         13   9  84  CALM    N/A
#LA PINE 4NW    N/A         12   8  84  CALM    30.34R
#LAVA BUTTE DOT N/A         16  13  88  CALM    N/A
#MT BACHELOR-MIDN/A         31  -17 11  CALM    N/A
#SISTERS AIRPOR N/A         13  12  96  CALM    30.17S
#SISTERS ODOT   N/A         15  N/A N/A CALM    N/A
#SISTERS 1NW    N/A         15  12  88  N1      N/A
#SISTERS 3N     N/A         14   2  58  CALM    30.19S
#SUNRIVER       N/A         16  13  88  CALM    30.20R
#TUMALO 3W      N/A         26  15  63  SW2     30.14S
#WANOGA BUTTE D N/A         23  10  57  W7      N/A

$$

ORZ044-041410-
LOWER COLUMBIA BASIN...OREGON

CITY            SKY/WX      TMP DP  RH  WIND    PRES   REMARKS
HERMISTON       CLEAR       22  16  77  S3      30.28R
#BOARDMAN 8SW   N/A         23  19  84  CALM    30.31R
#IONE SCHOOL    N/A         27  14  57  CALM    30.25R
#IRRIGON 4NW    N/A         21  18  88  CALM    N/A
#UMATILLA SCHOOLN/A         19  19  100 CALM    30.41R
#UMATILLA       N/A         27  17  65  CALM    30.27S
$$

ORZ507-041410-
NORTHERN FOOTHILLS OF THE BLUES

CITY            SKY/WX      TMP DP  RH  WIND    PRES   REMARKS
PENDLETON AIRPT CLEAR       24  15  68  E9      30.24S
#ADAMS 3WNW     N/A         21  15  77  N1      30.32S
#ATHENA         N/A         29  14  53  SE1     30.34S
#CAYUSE         N/A         30  16  55  E10     30.29S
#HELIX SCHOOL   N/A         18  14  84  N1      30.32S
#HELIX 3N       N/A         27  15  60  E7      30.18S
#HELIX 6SW      N/A         25  17  71  E2      30.23S
#HOLDMAN 6E     N/A         25  17  71  CALM    30.11S
#M-F FERNDALE   N/A         24  14  65  CALM    30.25R
#M-F GROVE ELEM N/A         31   8  37  S2      30.24R
#M-FREEWATER 5SEN/A         30  11  44  E3      30.24S
#PENDLETON DNTN N/A         21   8  56  CALM    30.28R
#PDT AQUATIC CTRN/A         22   8  54  CALM    30.25S
#PDT SUNRIDGE   N/A         17  13  84  CALM    30.28R
#PENDLETON 7NW  N/A         25  17  71  E9      29.90R
#PILOT ROCK     N/A         28   5  37  SE7     30.25R
#TUTUILLA       N/A         20  15  81  CALM    30.31R
#UMAPINE 2E     N/A         30  17  58  SE1     30.24S
#WESTON SCHOOL  N/A         31   5  32  CALM    30.22R

$$

ORZ508-041410-
SOUTHERN FOOTHILLS OF THE BLUES

CITY            SKY/WX      TMP DP  RH  WIND    PRES   REMARKS
LEXINGTON       CLEAR       32  18  56  SE10    30.26R
#AJAX           N/A         31  14  49  CALM    30.14R
#CONDON SCHOOL  N/A         28  19  68  CALM    30.14R
#CONDON 5W      N/A         32  14  47  CALM    30.14R
#FOSSIL SCHOOL  N/A         23  18  81  CALM    30.16S
#HEPPNER EOC    N/A         27  15  60  SE7     30.27R
#HEPPNER 4NE    N/A         26  10  50  E1      30.30S
#LEXINGTON 2SE  N/A         30  16  55  SE9     30.20R
#MIKKALO        N/A         24  18  77  NE2     30.23R
#OLEX 4N        N/A         28  23  81  S3      30.24R
#RUGGS 5NE      N/A         24  12  60  SE2     30.33S
#RUGGS 2SW      N/A         29  16  58  SW14    30.32S WCI 18

$$

ORZ502-503-041410-
BLUE MOUNTAINS

CITY            SKY/WX      TMP DP  RH  WIND    PRES   REMARKS
MEACHAM         CLEAR        9   5  83  CALM    30.18R
#BATTLE MTN DOT N/A         15  15  100 S5      N/A
#HEPPNER 15SE   N/A         18  13  80  CALM    30.06S
#LADD CYN SMT   N/A         15   9  77  CALM    N/A
#LADD CREEK ODOTN/A         18  12  77  SW2     N/A
#LONG CREEK HS  N/A         16  14  92  CALM    30.14S
#N POWDER DOT   N/A         12   9  87  NW2     N/A
#PIKES PEAK     N/A         30   2  29  E1      27.99S
#TROY SCHOOL    N/A         22  18  84  CALM    30.24R
#UKIAH          N/A         10   8  91  CALM    30.45R
#WESTON 4E      N/A         24   7  48  SE5     30.29R
$$

ORZ505-041410-
JOHN DAY BASIN

CITY            SKY/WX      TMP DP  RH  WIND    PRES   REMARKS
JOHN DAY        PTCLDY      20  15  81  E8      30.20R
#JOHN DAY KJDY  N/A         19  14  80  E2      30.26R
#DAYVILLE SCHOOLN/A         22  16  77  CALM    30.21S
#MONUMENT HS    N/A         18  13  80  CALM    30.26R
#MT. VERNON 5SE N/A         18  13  80  CALM    30.13S
#SPRAY SCHOOL   N/A         19  N/A N/A CALM    N/A
#WINLOCK        N/A         21  14  74  CALM    30.27R
$$

ORZ506-041410-
OCHOCO AND JOHN DAY HIGHLANDS

CITY            SKY/WX      TMP DP  RH  WIND    PRES   REMARKS
#BUCK CREEK DOT N/A         25  25  100 CALM    N/A
#HORSE RIDGE DO N/A         11   6  80  CALM    N/A
#KEYES SMT DOT  N/A         18  12  77  CALM    N/A
#PAULINA SCHOOL N/A         41  15  34  CALM    30.14R
#PINE MTN OBS   N/A         26   4  38  E3      N/A
#PRAIRIE CITY   N/A         14   7  73  CALM    30.52F
#SENECA         N/A          6  N/A N/A CALM    N/A
$$

ORZ049-041410-
GRANDE RONDE VALLEY

CITY            SKY/WX      TMP DP  RH  WIND    PRES   REMARKS
LA GRANDE       CLEAR       16   7  67  CALM    30.23R
#COVE           N/A         15   9  77  CALM    30.23R
#COVE SCHOOL    N/A         15   9  77  CALM    30.19R
#ELGIN 3N       N/A         13   2  61  CALM    30.21R
#ELGIN 1E       N/A         17  11  77  CALM    N/A
#IMBLER SCHOOL  N/A         17  10  73  CALM    30.19R
#ISLAND CITY 4N N/A         29  25  85  CALM    30.23F
#LADD CYN DOT   N/A         20  10  64  SE6     N/A
#UNION 1S       N/A         16  11  80  CALM    30.29R
$$

ORZ050-041410-
WALLOWA COUNTY

CITY            SKY/WX      TMP DP  RH  WIND    PRES   REMARKS
JOSEPH AIRPORT  CLEAR       14   9  80  CALM    30.18R
#ENTERPRISE HS  N/A         14  10  84  CALM    30.19S
#IMNAHA SCHOOL  N/A         22  17  81  S1      30.29R
#IMNAHA 10S     N/A         19  12  74  SW5     30.22S
#JOSEPH 3N      N/A         11   4  73  CALM    30.18R
#JOSEPH 3W      N/A         16  -3  42  SW1     29.95S
#LOSTINE        N/A         12   8  84  CALM    30.16S
#MT HOWARD 8000 N/A         11  -2  55  W6      29.92R
#PROMISE 1S     N/A         16  12  84  CALM    30.47R
#SHEEP RDG 7000 N/A         17  -12 26  CALM    30.43R
#WALLOWA SCHOOL N/A         12   9  87  CALM    31.37R



$$



USA.gov is the U.S. government's official web portal to all federal, state and local government web resources and services.